GW3251 Weather Reports


Display with metric or nautical units.
time (UTC)temp
F
wind
direction
speed
MPH
gust
MPH
rain 1hr
in
rain 24hr
in
rain mn
in
humidity
%
barometer
mb
20260831212540 101 0 0.0 6.0 0.00 0.00 0.00 41 1013.8
20260831212038 101 0 0.0 10.0 0.00 0.00 0.00 42 1013.9
20260831211604 100 0 0.0 10.0 0.00 0.00 0.00 42 1013.9
20260831211038 98 0 0.0 0.0 0.00 0.00 0.00 44 1013.9
20260831210539 97 0 0.0 0.0 0.00 0.00 0.00 45 1013.9
20260831210103 96 0 0.0 0.0 0.00 0.00 0.00 46 1014.2
20260831205536 97 0 0.0 0.0 0.00 0.00 0.00 45 1014.1
20260831205037 98 0 0.0 0.0 0.00 0.00 0.00 44 1014.1
20260831204604 99 0 0.0 0.0 0.00 0.00 0.00 42 1014.2
20260831204036 101 0 0.0 0.0 0.00 0.00 0.00 40 1014.4
20260831203537 100 0 0.0 0.0 0.00 0.00 0.00 41 1014.5
20260831203133 102 0 0.0 10.0 0.00 0.00 0.00 40 1014.6
20260831202536 101 0 0.0 13.0 0.00 0.00 0.00 41 1014.6
20260831202038 101 0 1.0 13.0 0.00 0.00 0.00 40 1014.8
20260831201606 101 0 0.0 7.0 0.00 0.00 0.00 41 1014.8
20260831201038 101 0 0.0 13.0 0.00 0.00 0.00 40 1014.9
20260831200536 101 0 0.0 13.0 0.00 0.00 0.00 41 1014.9
20260831200105 99 0 0.0 6.0 0.00 0.00 0.00 43 1014.9
20260831195536 101 0 0.0 11.0 0.00 0.00 0.00 41 1015.0
20260831195037 99 0 0.0 11.0 0.00 0.00 0.00 42 1015.0
20260831194610 100 0 0.0 8.0 0.00 0.00 0.00 43 1015.2
20260831194036 100 0 0.0 6.0 0.00 0.00 0.00 43 1015.2
20260831193539 100 0 0.0 0.0 0.00 0.00 0.00 42 1015.3
20260831193102 98 0 0.0 4.0 0.00 0.00 0.00 45 1015.4
20260831192537 99 0 0.0 14.0 0.00 0.00 0.00 42 1015.5
20260831192036 100 0 2.0 14.0 0.00 0.00 0.00 42 1015.5
20260831191606 97 0 0.0 0.0 0.00 0.00 0.00 45 1015.5
20260831191039 96 0 0.0 10.0 0.00 0.00 0.00 46 1015.6
20260831190537 97 0 0.0 10.0 0.00 0.00 0.00 46 1015.7
20260831190137 99 0 0.0 0.0 0.00 0.00 0.00 44 1015.8
20260831185540 99 0 0.0 0.0 0.00 0.00 0.00 45 1015.7
20260831185039 100 0 0.0 8.0 0.00 0.00 0.00 44 1016.0
20260831184609 98 0 0.0 8.0 0.00 0.00 0.00 45 1016.0
20260831184039 99 0 0.0 7.0 0.00 0.00 0.00 44 1016.0
20260831183537 99 0 0.0 8.0 0.00 0.00 0.00 44 1015.9
20260831183102 100 0 0.0 8.0 0.00 0.00 0.00 43 1016.2
20260831182541 100 188 0.0 7.0 0.00 0.00 0.00 43 1016.2
20260831182038 100 0 0.0 11.0 0.00 0.00 0.00 42 1016.2
20260831181605 100 0 0.0 11.0 0.00 0.00 0.00 45 1016.3
20260831181040 99 0 0.0 9.0 0.00 0.00 0.00 45 1016.6
20260831180537 99 0 0.0 9.0 0.00 0.00 0.00 47 1016.5
20260831180112 100 0 0.0 9.0 0.00 0.00 0.00 45 1016.5
20260831175537 98 0 0.0 0.0 0.00 0.00 0.00 49 1016.5
20260831175037 96 0 0.0 0.0 0.00 0.00 0.00 49 1016.7
20260831174602 98 0 0.0 0.0 0.00 0.00 0.00 47 1016.7
20260831174037 98 0 0.0 0.0 0.00 0.00 0.00 48 1016.7
20260831173538 96 0 0.0 2.0 0.00 0.00 0.00 49 1016.9
20260831173108 96 0 0.0 4.0 0.00 0.00 0.00 51 1016.7
20260831172540 98 0 0.0 4.0 0.00 0.00 0.00 48 1016.9
20260831172037 96 0 0.0 4.0 0.00 0.00 0.00 51 1016.8
20260831171607 96 0 0.0 0.0 0.00 0.00 0.00 51 1016.8
20260831171036 96 0 0.0 0.0 0.00 0.00 0.00 51 1016.9
20260831170536 96 0 0.0 0.0 0.00 0.00 0.00 52 1017.1
20260831170110 96 0 0.0 1.0 0.00 0.00 0.00 51 1017.2
20260831165537 94 0 0.0 1.0 0.00 0.00 0.00 54 1017.2
20260831165037 95 0 0.0 0.0 0.00 0.00 0.00 54 1017.2
20260831164605 95 0 0.0 0.0 0.00 0.00 0.00 54 1017.3
20260831164036 95 0 0.0 0.0 0.00 0.00 0.00 53 1017.5
20260831163537 95 0 0.0 4.0 0.00 0.00 0.00 55 1017.5
20260831163058 95 0 0.0 4.0 0.00 0.00 0.00 56 1017.4
20260831162536 94 196 0.0 0.0 0.00 0.00 0.00 55 1017.4
20260831162036 94 0 0.0 0.0 0.00 0.00 0.00 55 1017.5
20260831161608 94 0 0.0 0.0 0.00 0.00 0.00 56 1017.4
20260831161037 93 0 0.0 0.0 0.00 0.00 0.00 57 1017.4
20260831160539 94 0 0.0 0.0 0.00 0.00 0.00 57 1017.5
20260831160134 92 0 0.0 0.0 0.00 0.00 0.00 61 1017.3
20260831155536 92 0 0.0 0.0 0.00 0.00 0.00 61 1017.4
20260831155037 92 0 0.0 0.0 0.00 0.00 0.00 60 1017.4
20260831154625 91 0 0.0 0.0 0.00 0.00 0.00 63 1017.4
20260831154041 90 0 0.0 0.0 0.00 0.00 0.00 63 1017.3
20260831153539 90 0 0.0 0.0 0.00 0.00 0.00 67 1017.4
20260831153134 91 0 0.0 1.0 0.00 0.00 0.00 68 1017.3
20260831152537 90 0 0.0 1.0 0.00 0.00 0.00 68 1017.3
20260831152037 89 0 0.0 1.0 0.00 0.00 0.00 70 1017.3
20260831151606 89 0 0.0 0.0 0.00 0.00 0.00 70 1017.1
20260831151037 88 0 0.0 0.0 0.00 0.00 0.00 72 1017.2
20260831150539 88 0 0.0 0.0 0.00 0.00 0.00 74 1017.1
20260831145536 88 0 0.0 4.0 0.00 0.00 0.00 76 1017.1
20260831145042 87 0 0.0 4.0 0.00 0.00 0.00 77 1017.2
20260831144607 86 0 0.0 0.0 0.00 0.00 0.00 79 1017.2
20260831144036 85 0 0.0 0.0 0.00 0.00 0.00 80 1017.3
20260831143537 85 0 0.0 0.0 0.00 0.00 0.00 80 1017.2
20260831143104 84 0 0.0 0.0 0.00 0.00 0.00 81 1017.1
20260831142537 84 0 0.0 0.0 0.00 0.00 0.00 82 1017.1
20260831142036 84 0 0.0 0.0 0.00 0.00 0.00 83 1017.0
20260831141604 83 0 0.0 0.0 0.00 0.00 0.00 84 1016.8
20260831141040 82 0 0.0 0.0 0.00 0.00 0.00 87 1017.0
20260831140536 81 0 0.0 0.0 0.00 0.00 0.00 88 1017.1
20260831135537 79 0 0.0 0.0 0.00 0.00 0.00 91 1017.1
20260831135037 78 0 0.0 0.0 0.00 0.00 0.00 92 1016.8
20260831134607 78 0 0.0 0.0 0.00 0.00 0.00 93 1016.8
20260831134039 77 0 0.0 0.0 0.00 0.00 0.00 93 1017.0
20260831133537 77 0 0.0 0.0 0.00 0.00 0.00 93 1016.8
20260831133059 76 0 0.0 0.0 0.00 0.00 0.00 94 1016.7
20260831132537 76 0 0.0 0.0 0.00 0.00 0.00 94 1016.7
20260831132037 75 0 0.0 0.0 0.00 0.00 0.00 94 1016.7
20260831131605 75 0 0.0 0.0 0.00 0.00 0.00 94 1016.5
20260831131040 75 0 0.0 0.0 0.00 0.00 0.00 94 1016.4
20260831130538 74 0 0.0 0.0 0.00 0.00 0.00 94 1016.4
20260831130135 74 0 0.0 0.0 0.00 0.00 0.00 93 1016.2
20260831125536 73 0 0.0 0.0 0.00 0.00 0.00 93 1016.3
20260831125039 73 0 0.0 0.0 0.00 0.00 0.00 93 1016.2
20260831124601 72 0 0.0 0.0 0.00 0.00 0.00 93 1016.1
20260831124039 72 0 0.0 0.0 0.00 0.00 0.00 93 1016.1
20260831123536 72 0 0.0 0.0 0.00 0.00 0.00 93 1016.1
20260831123109 72 0 0.0 0.0 0.00 0.00 0.00 93 1016.0
20260831122537 72 0 0.0 0.0 0.00 0.00 0.00 93 1016.1
20260831122037 72 0 0.0 0.0 0.00 0.00 0.00 93 1016.0
20260831121600 72 0 0.0 0.0 0.00 0.00 0.00 93 1016.1
20260831121038 72 0 0.0 0.0 0.00 0.00 0.00 93 1015.8
20260831120538 72 0 0.0 0.0 0.00 0.00 0.00 93 1015.9
20260831120147 72 0 0.0 0.0 0.00 0.00 0.00 93 1015.8
20260831115538 72 0 0.0 0.0 0.00 0.00 0.00 92 1015.8
20260831115039 72 0 0.0 0.0 0.00 0.00 0.00 92 1015.7
20260831114603 72 0 0.0 0.0 0.00 0.00 0.00 92 1015.8
20260831114039 72 0 0.0 0.0 0.00 0.00 0.00 92 1015.7
20260831113537 72 0 0.0 0.0 0.00 0.00 0.00 92 1015.7
20260831113105 72 0 0.0 0.0 0.00 0.00 0.00 92 1015.8
20260831112538 73 0 0.0 0.0 0.00 0.00 0.00 92 1015.8
20260831112037 72 0 0.0 0.0 0.00 0.00 0.00 92 1015.7
20260831111603 73 0 0.0 0.0 0.00 0.00 0.00 92 1015.6
20260831111036 73 0 0.0 0.0 0.00 0.00 0.00 92 1015.5
20260831110539 73 0 0.0 0.0 0.00 0.00 0.00 92 1015.6
20260831105536 73 0 0.0 0.0 0.00 0.00 0.00 92 1015.5
20260831105039 73 0 0.0 0.0 0.00 0.00 0.00 92 1015.6
20260831104557 73 0 0.0 0.0 0.00 0.00 0.00 92 1015.5
20260831104037 73 0 0.0 0.0 0.00 0.00 0.00 92 1015.7
20260831103537 73 0 0.0 0.0 0.00 0.00 0.00 91 1015.7
20260831103054 73 0 0.0 0.0 0.00 0.00 0.00 91 1015.6
20260831102537 74 0 0.0 0.0 0.00 0.00 0.00 91 1015.7
20260831102037 74 0 0.0 0.0 0.00 0.00 0.00 91 1015.6
20260831101621 74 0 0.0 0.0 0.00 0.00 0.00 91 1015.5
20260831101037 74 0 0.0 0.0 0.00 0.00 0.00 91 1015.5
20260831100539 74 0 0.0 0.0 0.00 0.00 0.00 91 1015.7
20260831095541 74 0 0.0 0.0 0.00 0.00 0.00 90 1015.6
20260831095039 74 0 0.0 0.0 0.00 0.00 0.00 90 1015.5
20260831094606 74 0 0.0 0.0 0.00 0.00 0.00 90 1015.5
20260831094039 75 0 0.0 0.0 0.00 0.00 0.00 90 1015.4
20260831093537 75 0 0.0 0.0 0.00 0.00 0.00 90 1015.3
20260831093113 75 0 0.0 0.0 0.00 0.00 0.00 90 1015.4
20260831092537 75 0 0.0 0.0 0.00 0.00 0.00 90 1015.4
20260831092036 75 0 0.0 0.0 0.00 0.00 0.00 90 1015.3
20260831091605 75 0 0.0 0.0 0.00 0.00 0.00 90 1015.3
20260831091036 75 0 0.0 0.0 0.00 0.00 0.00 89 1015.3
20260831090539 75 0 0.0 0.0 0.00 0.00 0.00 89 1015.3
20260831090124 76 0 0.0 0.0 0.00 0.00 0.00 89 1015.2
20260831085537 76 0 0.0 0.0 0.00 0.00 0.00 89 1015.3
20260831085037 76 0 0.0 0.0 0.00 0.00 0.00 89 1015.2
20260831084603 76 0 0.0 0.0 0.00 0.00 0.00 89 1015.2
20260831084039 76 0 0.0 0.0 0.00 0.00 0.00 89 1015.3
20260831083539 76 0 0.0 0.0 0.00 0.00 0.00 89 1015.2
20260831083100 76 0 0.0 0.0 0.00 0.00 0.00 89 1015.2
20260831082537 76 0 0.0 0.0 0.00 0.00 0.00 89 1015.2
20260831082037 76 0 0.0 0.0 0.00 0.00 0.00 88 1015.3
20260831081559 76 0 0.0 0.0 0.00 0.00 0.00 88 1015.4
20260831081039 76 0 0.0 0.0 0.00 0.00 0.00 88 1015.4
20260831080541 76 0 0.0 0.0 0.00 0.00 0.00 88 1015.5
20260831080105 76 0 0.0 0.0 0.00 0.00 0.00 88 1015.5
20260831075538 76 0 0.0 0.0 0.00 0.00 0.00 88 1015.6
20260831075040 76 0 0.0 0.0 0.00 0.00 0.00 88 1015.6
20260831074603 76 0 0.0 0.0 0.00 0.00 0.00 88 1015.6
20260831074039 76 0 0.0 0.0 0.00 0.00 0.00 88 1015.4
20260831073538 76 0 0.0 0.0 0.00 0.00 0.00 87 1015.4
20260831073114 76 0 0.0 0.0 0.00 0.00 0.00 87 1015.5
20260831072541 77 0 0.0 0.0 0.00 0.00 0.00 87 1015.5
20260831072038 77 0 0.0 0.0 0.00 0.00 0.00 87 1015.6
20260831071609 76 0 0.0 0.0 0.00 0.00 0.00 87 1015.6
20260831071039 76 0 0.0 0.0 0.00 0.00 0.00 87 1015.6
20260831070539 76 0 0.0 0.0 0.00 0.00 0.00 87 1015.7
20260831070137 76 0 0.0 0.0 0.00 0.00 0.00 87 1015.8
20260831065538 76 0 0.0 0.0 0.00 0.00 0.00 87 1015.7
20260831065039 77 0 0.0 0.0 0.00 0.00 0.00 87 1015.8
20260831064601 77 0 0.0 0.0 0.00 0.00 0.00 87 1015.8
20260831064040 77 0 0.0 0.0 0.00 0.00 0.00 86 1015.9
20260831063539 77 0 0.0 0.0 0.00 0.00 0.00 86 1015.9
20260831063101 77 0 0.0 0.0 0.00 0.00 0.00 86 1015.8
20260831062539 78 0 0.0 0.0 0.00 0.00 0.00 85 1015.8
20260831062039 78 0 0.0 0.0 0.00 0.00 0.00 85 1016.0
20260831061611 78 0 0.0 0.0 0.00 0.00 0.00 84 1015.9
20260831061039 79 0 0.0 0.0 0.00 0.00 0.00 84 1015.8
20260831060539 79 0 0.0 0.0 0.00 0.00 0.00 84 1015.8
20260831060112 79 0 0.0 0.0 0.00 0.00 0.00 83 1015.9
20260831055538 79 0 0.0 0.0 0.00 0.00 0.00 83 1015.7
20260831055041 79 0 0.0 0.0 0.00 0.00 0.00 83 1015.8
20260831054605 79 0 0.0 0.0 0.00 0.00 0.00 83 1015.8
20260831054039 80 0 0.0 0.0 0.00 0.00 0.00 82 1015.9
20260831053539 80 0 0.0 0.0 0.00 0.00 0.00 82 1015.7
20260831053108 80 0 0.0 0.0 0.00 0.00 0.00 81 1015.7
20260831052539 80 0 0.0 0.0 0.00 0.00 0.00 81 1015.7
20260831052040 80 0 0.0 0.0 0.00 0.00 0.00 81 1015.6
20260831051622 80 0 0.0 0.0 0.00 0.00 0.00 81 1015.7
20260831051036 80 0 0.0 0.0 0.00 0.00 0.00 81 1015.6
20260831050536 81 0 0.0 0.0 0.00 0.00 0.00 80 1015.5
20260831050115 81 0 0.0 0.0 0.00 0.00 0.00 80 1015.5
20260831045537 81 0 0.0 0.0 0.00 0.00 0.00 80 1015.4
20260831045037 81 0 0.0 0.0 0.00 0.00 0.00 79 1015.4
20260831044605 81 0 0.0 0.0 0.00 0.00 0.00 79 1015.4
20260831044036 82 0 0.0 0.0 0.00 0.00 0.00 78 1015.5
20260831043536 82 0 0.0 0.0 0.00 0.00 0.00 78 1015.3
20260831043056 82 0 0.0 0.0 0.00 0.00 0.00 77 1015.3
20260831042537 82 0 0.0 0.0 0.00 0.00 0.00 77 1015.3
20260831042038 82 0 0.0 0.0 0.00 0.00 0.00 77 1015.3
20260831041612 82 0 0.0 0.0 0.00 0.00 0.00 76 1015.3
20260831041037 83 0 0.0 0.0 0.00 0.00 0.00 76 1015.2
20260831040537 83 0 0.0 0.0 0.00 0.00 0.00 76 1015.4
20260831040109 83 0 0.0 0.0 0.00 0.00 0.00 75 1015.2
20260831035536 83 0 0.0 0.0 0.00 0.00 0.00 75 1015.2
20260831035036 83 0 0.0 0.0 0.00 0.00 0.00 74 1015.1
20260831034603 83 0 0.0 0.0 0.00 0.00 0.00 74 1015.1
20260831034036 83 0 0.0 0.0 0.00 0.00 0.00 73 1015.1
20260831033537 83 0 0.0 0.0 0.00 0.00 0.00 73 1014.9
20260831033106 83 0 0.0 0.0 0.00 0.00 0.00 72 1014.8
20260831032538 83 0 0.0 0.0 0.00 0.00 0.00 71 1014.8
20260831032046 83 0 0.0 0.0 0.00 0.00 0.00 71 1014.7
20260831031606 83 0 0.0 0.0 0.00 0.00 0.00 70 1014.6
20260831031037 83 0 0.0 0.0 0.00 0.00 0.00 70 1014.5
20260831030537 84 0 0.0 0.0 0.00 0.00 0.00 69 1014.5
20260831030105 83 0 0.0 0.0 0.00 0.00 0.00 68 1014.6
20260831025537 84 0 0.0 0.0 0.00 0.00 0.00 67 1014.4
20260831025037 84 0 0.0 0.0 0.00 0.00 0.00 66 1014.4
20260831024619 83 0 0.0 0.0 0.00 0.00 0.00 66 1014.4
20260831024037 83 0 0.0 0.0 0.00 0.00 0.00 65 1014.4
20260831023543 83 0 0.0 0.0 0.00 0.00 0.00 64 1014.2
20260831023102 83 0 0.0 0.0 0.00 0.00 0.00 64 1014.2
20260831022537 83 0 0.0 0.0 0.00 0.00 0.00 64 1014.0
20260831022037 83 0 0.0 0.0 0.00 0.00 0.00 64 1013.9
20260831021600 83 0 0.0 0.0 0.00 0.00 0.00 65 1013.9
20260831021037 83 0 0.0 0.0 0.00 0.00 0.00 64 1013.9
20260831020537 83 0 0.0 0.0 0.00 0.00 0.00 64 1013.7
20260831020109 83 0 0.0 0.0 0.00 0.00 0.00 64 1013.7
20260831015540 83 0 0.0 0.0 0.00 0.00 0.00 63 1013.5
20260831015039 84 0 0.0 0.0 0.00 0.00 0.00 64 1013.5
20260831014607 84 0 0.0 0.0 0.00 0.00 0.00 64 1013.5
20260831014036 84 0 0.0 0.0 0.00 0.00 0.00 63 1013.5
20260831013536 84 0 0.0 0.0 0.00 0.00 0.00 63 1013.5
20260831013104 84 0 0.0 0.0 0.00 0.00 0.00 64 1013.4
20260831012537 84 0 0.0 0.0 0.00 0.00 0.00 64 1013.4
20260831012037 85 0 0.0 0.0 0.00 0.00 0.00 64 1013.4
20260831011604 85 0 0.0 0.0 0.00 0.00 0.00 63 1013.4
20260831011037 86 0 0.0 0.0 0.00 0.00 0.00 61 1013.4
20260831010540 87 0 0.0 0.0 0.00 0.00 0.00 59 1013.3
20260831010130 87 0 0.0 0.0 0.00 0.00 0.00 58 1013.5
20260831005537 88 0 0.0 0.0 0.00 0.00 0.00 56 1013.2
20260831005037 89 0 0.0 0.0 0.00 0.00 0.00 56 1013.2
20260831004602 89 0 0.0 0.0 0.00 0.00 0.00 54 1013.2
20260831004038 90 0 0.0 0.0 0.00 0.00 0.00 53 1013.3
20260831003539 91 0 0.0 0.0 0.00 0.00 0.00 53 1013.2
20260831003111 91 0 0.0 0.0 0.00 0.00 0.00 51 1013.3
20260831002536 92 0 0.0 0.0 0.00 0.00 0.00 51 1013.1
20260831002037 92 0 0.0 0.0 0.00 0.00 0.00 49 1013.2
20260831001609 93 0 0.0 0.0 0.00 0.00 0.00 49 1013.2
20260831001056 93 0 0.0 2.0 0.00 0.00 0.00 48 1013.3
20260831000537 93 0 0.0 7.0 0.00 0.00 0.00 47 1013.3
20260831000106 94 0 0.0 7.0 0.00 0.00 0.00 47 1013.3
20260830235538 94 0 0.0 5.0 0.00 0.00 0.00 47 1013.3
20260830235041 94 0 0.0 5.0 0.00 0.00 0.00 46 1013.2
20260830234607 94 0 0.0 3.0 0.00 0.00 0.00 45 1013.3
20260830234038 95 0 0.0 5.0 0.00 0.00 0.00 44 1013.3
20260830233537 95 0 0.0 5.0 0.00 0.00 0.00 45 1013.2
20260830233105 95 0 0.0 8.0 0.00 0.00 0.00 45 1013.1
20260830232542 96 0 0.0 8.0 0.00 0.00 0.00 44 1013.2
20260830232040 96 0 0.0 9.0 0.00 0.00 0.00 43 1013.2
20260830231603 96 0 0.0 9.0 0.00 0.00 0.00 42 1013.1
20260830231037 97 0 0.0 15.0 0.00 0.00 0.00 42 1013.2
20260830230537 97 0 0.0 15.0 0.00 0.00 0.00 42 1013.1
20260830225537 98 0 0.0 8.0 0.00 0.00 0.00 41 1013.0
20260830225037 99 0 0.0 8.0 0.00 0.00 0.00 42 1013.1
20260830224607 99 0 0.0 8.0 0.00 0.00 0.00 41 1013.2
20260830224040 99 0 0.0 11.0 0.00 0.00 0.00 41 1013.2
20260830223540 100 192 0.0 11.0 0.00 0.00 0.00 40 1013.2
20260830223103 100 0 0.0 0.0 0.00 0.00 0.00 40 1013.3
20260830222536 100 0 0.0 12.0 0.00 0.00 0.00 40 1013.3
20260830222036 101 0 1.0 12.0 0.00 0.00 0.00 40 1013.3
20260830221601 100 0 0.0 8.0 0.00 0.00 0.00 40 1013.3
20260830221037 101 0 0.0 7.0 0.00 0.00 0.00 39 1013.3
20260830220538 101 0 0.0 14.0 0.00 0.00 0.00 39 1013.4
20260830220126 101 0 3.0 14.0 0.00 0.00 0.00 39 1013.3
20260830215536 101 0 0.0 6.0 0.00 0.00 0.00 38 1013.4
20260830215037 102 0 0.0 9.0 0.00 0.00 0.00 38 1013.5
20260830214603 101 0 0.0 9.0 0.00 0.00 0.00 38 1013.6
20260830214037 100 0 0.0 8.0 0.00 0.00 0.00 40 1013.5
20260830213538 101 0 1.0 8.0 0.00 0.00 0.00 38 1013.6
20260830213055 101 0 0.0 8.0 0.00 0.00 0.00 38 1013.7